Weather History for KY51 - February, 2014

Change the Weather History Date:

Monday, February 24, 2014

  Actual Average (KLSE) Record (KLSE)
Temperature  
Mean Temperature 10 °F 26 °F  
Max Temperature 17 °F 35 °F 59 °F (1931)
Min Temperature 2 °F 17 °F -17 °F (1889)
Degree Days  
Heating Degree Days 56 39  
Month to date heating degree days 1038  
Since 1 July heating degree days 5357  
Cooling Degree Days 0 0  
Month to date cooling degree days 0  
Year to date cooling degree days 0  
Moisture  
Dew Point 0 °F    
Average Humidity 65    
Maximum Humidity 80    
Minimum Humidity 48    
Precipitation  
Precipitation 0.00 in 0.04 in 0.79 in (1975)
Month to date precipitation 0.87  
Year to date precipitation 1.99  
Snow  
Snow 0.00 in 0.30 in 8.00 in (1975)
Month to date snowfall 7.1  
Since 1 July snowfall 33.4  
Snow Depth -    
Sea Level Pressure  
Sea Level Pressure 30.20 in    
Wind  
Wind Speed 10 mph (WNW)    
Max Wind Speed 15 mph    
Max Gust Speed 20 mph    
Visibility 10 miles    
Events      
T = Trace of Precipitation, MM = Missing Value Source: NWS Daily Summary

Daily Weather History Graph

Daily Weather History Graph

Search for Another Location

Airport or City:

Trip Planner

Search our weather history database for the weather conditions in past years. The results will help you decide how hot, cold, wet, or windy it might be!

Date:

Astronomy

Feb. 24, 2014 Rise Set
Actual Time 6:48 AM CST 5:45 PM CST
Civil Twilight 6:19 AM CST 6:14 PM CST
Nautical Twilight 5:46 AM CST 6:48 PM CST
Astronomical Twilight 5:12 AM CST 7:21 PM CST
Moon 2:52 AM CST (2/24) 12:41 PM CST (2/24)
Length of Visible Light 11h 55m
Length of Day
10h 57m
Waning Crescent, 28% of the Moon is Illuminated
Feb 24
Waning Crescent
Mar 1
New
Mar 8
First Quarter
Mar 16
Full
Mar 23
Last Quarter

Hourly Weather History & Observations

Time (CST) Temp. Windchill Dew Point Humidity Pressure Visibility Wind Dir Wind Speed Gust Speed Precip Events Conditions
12:15 AM 9.3 °F -4.6 °F 2.3 °F 73% 30.17 in 10.0 mi WNW 10.4 mph - N/A   Clear
12:35 AM 9.0 °F -4.2 °F 1.9 °F 73% 30.18 in 10.0 mi WNW 9.2 mph - N/A   Clear
12:55 AM 9.0 °F -4.2 °F 1.4 °F 71% 30.17 in 10.0 mi WNW 9.2 mph - N/A   Clear
1:15 AM 8.4 °F -3.9 °F 0.9 °F 71% 30.18 in 10.0 mi WNW 8.1 mph - N/A   Clear
1:35 AM 8.1 °F -5.3 °F 0.5 °F 71% 30.17 in 10.0 mi WNW 9.2 mph - N/A   Clear
1:55 AM 7.7 °F -6.6 °F 0.3 °F 72% 30.17 in 10.0 mi WNW 10.4 mph - N/A   Clear
2:15 AM 7.7 °F -7.4 °F 0.5 °F 72% 30.17 in 10.0 mi WNW 11.5 mph - N/A   Clear
2:35 AM 7.3 °F -6.2 °F 0.1 °F 72% 30.18 in 10.0 mi WNW 9.2 mph - N/A   Clear
2:55 AM 7.0 °F -6.6 °F -0.4 °F 72% 30.18 in 10.0 mi WNW 9.2 mph - N/A   Clear
3:15 AM 6.8 °F -6.9 °F -0.4 °F 72% 30.17 in 10.0 mi WNW 9.2 mph - N/A   Clear
3:35 AM 6.3 °F -7.5 °F -0.8 °F 73% 30.17 in 10.0 mi WNW 9.2 mph - N/A   Clear
3:55 AM 5.7 °F -8.2 °F -1.3 °F 73% 30.17 in 10.0 mi WNW 9.2 mph - N/A   Clear
4:15 AM 5.0 °F -8.1 °F -1.3 °F 75% 30.17 in 10.0 mi West 8.1 mph - N/A   Clear
4:35 AM 5.0 °F -9.1 °F -1.3 °F 75% 30.18 in 10.0 mi West 9.2 mph - N/A   Clear
4:55 AM 4.8 °F -10.2 °F -1.3 °F 76% 30.18 in 10.0 mi WNW 10.4 mph - N/A   Clear
5:15 AM 4.3 °F -10.9 °F -1.5 °F 77% 30.18 in 10.0 mi WNW 10.4 mph - N/A   Clear
5:35 AM 3.9 °F -10.4 °F -1.7 °F 78% 30.19 in 10.0 mi WNW 9.2 mph - N/A   Clear
5:55 AM 3.6 °F -11.8 °F -1.8 °F 78% 30.19 in 10.0 mi WNW 10.4 mph - N/A   Clear
6:15 AM 3.4 °F -12.0 °F -1.8 °F 79% 30.19 in 10.0 mi WNW 10.4 mph - N/A   Clear
6:35 AM 3.2 °F -13.1 °F -1.8 °F 80% 30.19 in 10.0 mi WNW 11.5 mph - N/A   Clear
6:55 AM 2.7 °F -12.0 °F -2.2 °F 80% 30.20 in 10.0 mi West 9.2 mph - N/A   Clear
7:15 AM 2.8 °F -11.7 °F -2.2 °F 79% 30.20 in 10.0 mi WNW 9.2 mph - N/A   Clear
7:35 AM 3.2 °F -12.2 °F -2.2 °F 78% 30.20 in 10.0 mi WNW 10.4 mph - N/A   Clear
7:55 AM 3.9 °F -11.3 °F -2.2 °F 76% 30.20 in 10.0 mi WNW 10.4 mph 16.1 mph N/A   Clear
8:15 AM 4.1 °F -10.2 °F -2.2 °F 75% 30.21 in 10.0 mi WNW 9.2 mph - N/A   Clear
8:35 AM 5.0 °F -9.1 °F -1.8 °F 73% 30.22 in 10.0 mi WNW 9.2 mph - N/A   Clear
8:55 AM 5.7 °F -9.1 °F -1.7 °F 72% 30.22 in 10.0 mi WNW 10.4 mph - N/A   Clear
9:15 AM 6.8 °F -8.6 °F -1.3 °F 69% 30.23 in 10.0 mi WNW 11.5 mph - N/A   Clear
9:35 AM 7.5 °F -7.7 °F -1.3 °F 67% 30.23 in 10.0 mi WNW 11.5 mph - N/A   Clear
9:55 AM 8.6 °F -6.3 °F -0.6 °F 66% 30.23 in 10.0 mi WNW 11.5 mph - N/A   Clear
10:15 AM 9.3 °F -6.8 °F -0.6 °F 64% 30.23 in 10.0 mi WNW 13.8 mph - N/A   Clear
10:35 AM 10.4 °F -3.3 °F -0.4 °F 62% 30.23 in 10.0 mi WNW 10.4 mph 16.1 mph N/A   Clear
10:55 AM 11.5 °F -2.7 °F 0.3 °F 61% 30.23 in 10.0 mi West 11.5 mph - N/A   Clear
11:15 AM 12.6 °F -0.6 °F 0.3 °F 58% 30.23 in 10.0 mi West 10.4 mph - N/A   Clear
11:35 AM 13.3 °F -1.1 °F 0.3 °F 56% 30.23 in 10.0 mi WNW 12.7 mph - N/A   Clear
11:56 AM 14.0 °F 1.2 °F 1.0 °F 56% 30.23 in 10.0 mi WNW 10.4 mph - N/A   Clear
12:15 PM 14.7 °F 2.1 °F 1.2 °F 55% 30.23 in 10.0 mi WNW 10.4 mph - N/A   Clear
12:35 PM 15.1 °F 0.5 °F 1.0 °F 54% 30.22 in 10.0 mi West 13.8 mph - N/A   Clear
12:55 PM 15.4 °F 1.0 °F 0.7 °F 52% 30.22 in 10.0 mi WNW 13.8 mph 19.6 mph N/A   Clear
1:15 PM 15.8 °F 2.7 °F 0.7 °F 51% 30.22 in 10.0 mi WNW 11.5 mph - N/A   Clear
1:35 PM 16.3 °F 1.6 °F 0.3 °F 49% 30.21 in 10.0 mi WNW 15.0 mph - N/A   Clear
1:55 PM 17.1 °F 4.3 °F 1.2 °F 50% 30.21 in 10.0 mi West 11.5 mph - N/A   Clear
2:15 PM 17.2 °F 3.9 °F 1.8 °F 51% 30.21 in 10.0 mi WNW 12.7 mph - N/A   Clear
2:35 PM 16.5 °F 2.4 °F 0.5 °F 49% 30.21 in 10.0 mi West 13.8 mph 18.4 mph N/A   Clear
2:55 PM 16.7 °F 3.2 °F 0.1 °F 48% 30.20 in 10.0 mi WNW 12.7 mph - N/A   Clear
3:15 PM 17.1 °F 4.3 °F 1.6 °F 51% 30.20 in 10.0 mi WNW 11.5 mph - N/A   Clear
3:34 PM 16.5 °F 3.0 °F 0.7 °F 50% 30.20 in 10.0 mi NW 12.7 mph - N/A   Clear
3:55 PM 15.8 °F 3.4 °F 0.5 °F 51% 30.20 in 10.0 mi WNW 10.4 mph - N/A   Clear
4:15 PM 15.3 °F 2.8 °F -0.4 °F 50% 30.19 in 10.0 mi NW 10.4 mph - N/A   Clear
4:35 PM 15.3 °F 2.8 °F -0.0 °F 51% 30.19 in 10.0 mi WNW 10.4 mph - N/A   Scattered Clouds
4:55 PM 14.7 °F 3.8 °F -0.4 °F 51% 30.20 in 10.0 mi WNW 8.1 mph - N/A   Scattered Clouds
5:15 PM 14.0 °F 2.9 °F 0.3 °F 55% 30.19 in 10.0 mi WNW 8.1 mph - N/A   Clear
5:35 PM 14.0 °F 2.9 °F 0.7 °F 56% 30.19 in 10.0 mi WNW 8.1 mph - N/A   Mostly Cloudy
5:55 PM 13.5 °F 4.4 °F 1.9 °F 60% 30.19 in 10.0 mi West 5.8 mph - N/A   Overcast
6:15 PM 13.1 °F 4.0 °F 2.1 °F 62% 30.18 in 10.0 mi West 5.8 mph - N/A   Overcast
6:35 PM 13.1 °F 1.8 °F 1.8 °F 61% 30.20 in 10.0 mi West 8.1 mph - N/A   Overcast
6:55 PM 12.9 °F 0.7 °F 0.9 °F 59% 30.20 in 10.0 mi WNW 9.2 mph - N/A   Overcast
7:14 PM 12.6 °F 0.2 °F 0.3 °F 58% 30.20 in 10.0 mi WNW 9.2 mph - N/A   Overcast
7:35 PM 12.2 °F 0.7 °F 0.9 °F 60% 30.21 in 10.0 mi WNW 8.1 mph - N/A   Overcast
7:55 PM 11.8 °F -1.5 °F 0.7 °F 61% 30.20 in 10.0 mi WNW 10.4 mph - N/A   Overcast
8:15 PM 11.7 °F 1.1 °F 1.2 °F 63% 30.20 in 10.0 mi WNW 6.9 mph - N/A   Overcast
8:35 PM 11.7 °F -1.7 °F 1.4 °F 63% 30.20 in 10.0 mi WNW 10.4 mph - N/A   Overcast
8:55 PM 11.3 °F -1.3 °F 1.6 °F 65% 30.21 in 10.0 mi WNW 9.2 mph - N/A   Overcast
9:15 PM 10.9 °F -3.4 °F 1.4 °F 65% 30.22 in 10.0 mi WNW 11.5 mph - N/A   Overcast
9:35 PM 10.4 °F -3.3 °F 2.1 °F 69% 30.22 in 10.0 mi WNW 10.4 mph - N/A   Overcast
9:55 PM 10.4 °F -4.1 °F 1.9 °F 69% 30.22 in 10.0 mi WNW 11.5 mph - N/A   Overcast
10:15 PM 10.0 °F -3.7 °F 1.9 °F 70% 30.22 in 10.0 mi WNW 10.4 mph - N/A   Overcast
10:35 PM 10.0 °F -2.9 °F 2.1 °F 70% 30.22 in 10.0 mi WNW 9.2 mph - N/A   Overcast
10:56 PM 10.0 °F -3.7 °F 2.1 °F 70% 30.22 in 10.0 mi WNW 10.4 mph - N/A   Overcast
11:15 PM 10.0 °F -4.5 °F 2.1 °F 70% 30.22 in 10.0 mi WNW 11.5 mph - N/A   Overcast
11:35 PM 9.9 °F -4.0 °F 2.1 °F 71% 30.21 in 10.0 mi WNW 10.4 mph - N/A   Overcast
11:55 PM 9.5 °F -3.5 °F 3.7 °F 77% 30.21 in 3.0 mi WNW 9.2 mph - N/A   Overcast